Flag for Norway Weather past 2 weeks in Gjøvik, Norway

Now
67 °F

Mild.


Feels Like: 67 °F
Forecast: 57 / 71 °F
Wind: 5 mph from Southeast

Location: Lillehammer-Saetherengen

Current Time: Aug 2, 2014 at 12:15:51 PM

Latest Report: Aug 2, 2014 at 11:00 AM


Visibility: N/A

Pressure: 29.93 "Hg

Humidity: 69%

Dew point: 56 °F

Location of GjøvikLocation

Historic Weather in Gjøvik — Graph

°F

Gjøvik temperature yesterday

Maximum temperature yesterday: 74 °F (at 6:00 PM)
Minimum temperature yesterday: 53 °F (at 5:00 AM)
Average temperature yesterday: 62 °F

Past Weeks' High & Low Weather Summary

 TemperatureHumidityPressure
High88 °F (Jul 23, 5:00 PM)93% (Jul 28, 6:00 AM)30.34 "Hg (Jul 28, 6:00 AM)
Low53 °F (Aug 1, 5:00 AM)30% (Jul 23, 5:00 PM)29.54 "Hg (Jul 30, 3:00 PM)
Average68 °F64%30.01 "Hg
* Reported Jul 18 11:00 AM — Aug 2 11:00 AM, Gjøvik, Weather by CustomWeather, © 2014

Note: Actual official high and low records may vary slightly from our data, if they occured in-between our weather recording intervals... More about our weather records

Advertising

Gjøvik weather history for previous 24 hours

 ConditionsComfort  
Time TempWeatherWind HumidityBarometerVisibility
11:00 AM
Aug 2
67 °FMild.5 mph69%29.93 "HgN/A
10:00 AM65 °FMild.3 mph73%29.93 "HgN/A
9:00 AM64 °FMild.2 mph76%29.93 "HgN/A
8:00 AM62 °FCool.1 mph82%29.93 "HgN/A
7:00 AM61 °FCool.2 mph78%29.92 "HgN/A
6:00 AM61 °FCool.3 mph78%29.91 "HgN/A
5:00 AM61 °FCool.3 mph78%29.90 "HgN/A
4:00 AM62 °FCool.3 mph77%29.90 "HgN/A
3:00 AM62 °FCool.2 mph74%29.89 "HgN/A
2:00 AM62 °FCool.2 mph71%29.87 "HgN/A
1:00 AM63 °FMild.2 mph69%29.86 "HgN/A
12:00 AM63 °FMild.3 mph64%29.85 "HgN/A
11:00 PM
Aug 1
60 °FCool.1 mph66%29.84 "HgN/A
10:00 PM62 °FMild.No wind61%29.81 "HgN/A
9:00 PM65 °FMild.1 mph59%29.80 "HgN/A
8:00 PM72 °FMild.1 mph36%29.77 "HgN/A
7:00 PM70 °FMild.2 mph40%29.76 "HgN/A
6:00 PM74 °FMild.2 mph33%29.74 "HgN/A
5:00 PM70 °FMild.3 mph42%29.73 "HgN/A
4:00 PM72 °FMild.5 mph34%29.72 "HgN/A
3:00 PM66 °FMild.1 mph56%29.72 "HgN/A
2:00 PM71 °FMild.3 mph43%29.69 "HgN/A
1:00 PM71 °FMild.5 mph43%29.68 "HgN/A
12:00 PM69 °FMild.3 mph52%29.68 "HgN/A
Weather by CustomWeather, © 2014

See weather overviewHow to use our weather pages